Weather History for KHSV - November, 2013

Change the Weather History Date:

Saturday, November 23, 2013

  Actual Average Record
Temperature  
Mean Temperature 41 °F 50 °F  
Max Temperature 52 °F 61 °F 79 °F (1921)
Min Temperature 30 °F 40 °F 15 °F (1976)
Degree Days  
Heating Degree Days 24 15  
Month to date heating degree days 304 262  
Since 1 July heating degree days 435 413  
Cooling Degree Days 0 0  
Month to date cooling degree days 1 7  
Year to date cooling degree days 1834 1947  
Moisture  
Dew Point 35 °F    
Average Humidity 69    
Maximum Humidity 93    
Minimum Humidity 44    
Precipitation  
Precipitation T in 0.18 in 3.02 in (1986)
Month to date precipitation 1.01 3.61  
Year to date precipitation 49.65 47.24  
Snow  
Snow 0.00 in - - ()
Month to date snowfall 0.0  
Since 1 July snowfall 0.0  
Since 1 September snowfall 0.0  
Snow Depth 0.00 in    
Sea Level Pressure  
Sea Level Pressure 30.35 in    
Wind  
Wind Speed 13 mph (North)    
Max Wind Speed 22 mph    
Max Gust Speed 31 mph    
Visibility 9 miles    
Events Rain    
T = Trace of Precipitation, MM = Missing Value Source: NWS Daily Summary

Daily Weather History Graph

Daily Weather History Graph

Search for Another Location

Airport or City:

Trip Planner

Search our weather history database for the weather conditions in past years. The results will help you decide how hot, cold, wet, or windy it might be!

Date:

Astronomy

Nov. 23, 2013 Rise Set
Actual Time 6:28 AM CST 4:38 PM CST
Civil Twilight 6:01 AM CST 5:05 PM CST
Nautical Twilight 5:30 AM CST 5:36 PM CST
Astronomical Twilight 5:00 AM CST 6:06 PM CST
Moon 10:00 PM CST (11/23) 10:50 AM CST (11/23)
Length of Visible Light 11h 03m
Length of Day
10h 09m
Waning Gibbous, 69% of the Moon is Illuminated
Nov 23
Waning Gibbous
Nov 25
Last Quarter
Dec 2
New
Dec 9
First Quarter
Dec 17
Full

Hourly Weather History & Observations

Time (CST) Temp. Windchill Dew Point Humidity Pressure Visibility Wind Dir Wind Speed Gust Speed Precip Events Conditions
12:53 AM 48.9 °F - 46.0 °F 90% 30.28 in 7.0 mi North 9.2 mph - N/A   Overcast
1:28 AM 48.2 °F - 46.4 °F 93% 30.27 in 6.0 mi North 8.1 mph - N/A   Overcast
1:53 AM 48.9 °F - 46.0 °F 90% 30.27 in 5.0 mi NNE 10.4 mph - N/A   Overcast
2:53 AM 48.0 °F - 45.0 °F 89% 30.26 in 6.0 mi North 11.5 mph - N/A   Overcast
3:53 AM 46.9 °F - 44.1 °F 90% 30.28 in 7.0 mi North 8.1 mph 20.7 mph N/A   Overcast
4:53 AM 46.9 °F - 43.0 °F 86% 30.27 in 8.0 mi NNE 10.4 mph 20.7 mph 0.00 in Rain Light Rain
5:53 AM 46.0 °F 39.9 °F 43.0 °F 89% 30.31 in 8.0 mi North 13.8 mph - 0.00 in   Overcast
6:53 AM 46.0 °F 40.6 °F 42.1 °F 86% 30.33 in 7.0 mi NNE 11.5 mph - N/A   Overcast
7:14 AM 46.4 °F 39.8 °F 42.8 °F 87% 30.34 in 7.0 mi North 16.1 mph 19.6 mph N/A   Overcast
7:53 AM 45.0 °F 37.9 °F 41.0 °F 86% 30.35 in 7.0 mi North 16.1 mph 23.0 mph 0.00 in Rain Light Rain
8:53 AM 45.0 °F 37.9 °F 39.9 °F 82% 30.36 in 10.0 mi North 16.1 mph - 0.00 in Rain Light Rain
9:03 AM 44.6 °F 38.1 °F 39.2 °F 81% 30.36 in 10.0 mi North 13.8 mph 19.6 mph 0.00 in Rain Light Rain
9:53 AM 46.9 °F - 37.9 °F 71% 30.37 in 10.0 mi NNE 18.4 mph 24.2 mph 0.00 in   Overcast
10:39 AM 48.2 °F - 37.4 °F 66% 30.36 in 10.0 mi North 13.8 mph - N/A   Overcast
10:53 AM 48.0 °F - 37.9 °F 68% 30.35 in 10.0 mi NNE 13.8 mph - N/A   Overcast
11:53 AM 48.0 °F - 37.0 °F 66% 30.35 in 10.0 mi North 13.8 mph - N/A   Overcast
12:53 PM 48.0 °F - 37.0 °F 66% 30.33 in 10.0 mi North 13.8 mph 19.6 mph N/A   Overcast
1:53 PM 51.1 °F - 34.0 °F 52% 30.32 in 10.0 mi North 11.5 mph - N/A   Mostly Cloudy
2:53 PM 51.1 °F - 30.9 °F 46% 30.34 in 10.0 mi NNE 15.0 mph - N/A   Mostly Cloudy
3:53 PM 48.0 °F - 32.0 °F 54% 30.36 in 10.0 mi North 17.3 mph 21.9 mph N/A   Mostly Cloudy
4:53 PM 44.1 °F 37.4 °F 28.9 °F 55% 30.38 in 10.0 mi North 13.8 mph - N/A   Mostly Cloudy
5:53 PM 42.1 °F 35.7 °F 28.0 °F 58% 30.40 in 10.0 mi North 11.5 mph - N/A   Scattered Clouds
6:53 PM 39.9 °F 35.8 °F 28.9 °F 65% 30.40 in 10.0 mi NNW 5.8 mph - N/A   Scattered Clouds
7:53 PM 39.0 °F 33.4 °F 27.0 °F 62% 30.41 in 10.0 mi NNW 8.1 mph - N/A   Partly Cloudy
8:53 PM 37.9 °F 29.2 °F 19.9 °F 48% 30.42 in 10.0 mi North 15.0 mph 20.7 mph N/A   Partly Cloudy
9:53 PM 36.0 °F 27.1 °F 21.0 °F 55% 30.43 in 10.0 mi North 13.8 mph 25.3 mph N/A   Clear
10:53 PM 32.0 °F 21.6 °F 19.9 °F 61% 30.46 in 10.0 mi NNE 15.0 mph 20.7 mph N/A   Scattered Clouds
11:53 PM 30.0 °F 17.9 °F 19.0 °F 64% 30.46 in 10.0 mi NNE 18.4 mph 28.8 mph N/A   Scattered Clouds